TimeCDT,TemperatureF,Dew PointF,Humidity,Sea Level PressureIn,VisibilityMPH,Wind Direction,Wind SpeedMPH,Gust SpeedMPH,PrecipitationIn,Events,Conditions,WindDirDegrees,DateUTC
12:23 AM,68.0,64.4,88,30.09,5.0,Calm,Calm,-,N/A,,Mostly Cloudy,0,2012-10-11 05:23:00
12:51 AM,69.1,64.9,87,30.06,5.0,North,3.5,-,N/A,,Mostly Cloudy,350,2012-10-11 05:51:00
1:10 AM,66.2,64.4,94,30.08,5.0,Calm,Calm,-,N/A,,Partly Cloudy,0,2012-10-11 06:10:00
1:51 AM,66.0,63.0,90,30.06,4.0,Calm,Calm,-,N/A,,Partly Cloudy,0,2012-10-11 06:51:00
2:51 AM,64.0,62.1,93,30.05,4.0,Calm,Calm,-,N/A,,Clear,0,2012-10-11 07:51:00
3:40 AM,66.2,64.4,94,30.07,4.0,Calm,Calm,-,N/A,,Mostly Cloudy,0,2012-10-11 08:40:00
3:51 AM,66.9,64.0,90,30.05,4.0,Calm,Calm,-,N/A,,Overcast,0,2012-10-11 08:51:00
4:51 AM,71.1,69.1,93,30.05,5.0,SSE,8.1,-,N/A,,Overcast,160,2012-10-11 09:51:00
5:51 AM,72.0,70.0,93,30.06,6.0,South,9.2,-,N/A,,Overcast,190,2012-10-11 10:51:00
6:51 AM,73.0,70.0,90,30.08,10.0,South,9.2,-,N/A,,Overcast,190,2012-10-11 11:51:00
7:01 AM,73.4,69.8,88,30.10,10.0,South,8.1,-,N/A,,Overcast,190,2012-10-11 12:01:00
7:18 AM,73.4,69.8,88,30.11,10.0,South,6.9,-,N/A,,Overcast,180,2012-10-11 12:18:00
7:51 AM,73.0,70.0,90,30.10,10.0,South,9.2,-,N/A,,Overcast,170,2012-10-11 12:51:00
8:51 AM,73.9,70.0,87,30.11,9.0,SE,6.9,-,N/A,,Overcast,140,2012-10-11 13:51:00
9:51 AM,75.0,70.0,84,30.13,7.0,SSE,6.9,-,0.00,,Overcast,160,2012-10-11 14:51:00
10:51 AM,75.9,70.0,82,30.14,7.0,SSE,8.1,-,N/A,,Overcast,150,2012-10-11 15:51:00
11:21 AM,78.8,71.6,78,30.15,9.0,SSE,9.2,-,N/A,,Overcast,160,2012-10-11 16:21:00
11:51 AM,80.6,71.6,74,30.15,10.0,South,6.9,-,N/A,,Overcast,170,2012-10-11 16:51:00
12:27 PM,84.2,71.6,66,30.14,10.0,South,12.7,-,N/A,,Mostly Cloudy,190,2012-10-11 17:27:00
12:51 PM,84.9,72.0,65,30.11,10.0,SSE,10.4,-,N/A,,Clear,160,2012-10-11 17:51:00
1:51 PM,87.1,71.1,59,30.07,10.0,SSE,10.4,-,N/A,,Scattered Clouds,160,2012-10-11 18:51:00
2:51 PM,87.1,70.0,57,30.04,10.0,South,13.8,-,N/A,,Scattered Clouds,180,2012-10-11 19:51:00
3:51 PM,87.1,70.0,57,30.04,10.0,South,10.4,-,N/A,,Scattered Clouds,190,2012-10-11 20:51:00
4:51 PM,84.2,69.8,62,30.06,10.0,South,13.8,-,N/A,,Partly Cloudy,190,2012-10-11 21:51:00
5:51 PM,82.9,69.1,63,30.03,10.0,South,16.1,21.9,N/A,,Scattered Clouds,180,2012-10-11 22:51:00
6:51 PM,75.9,66.0,71,30.04,10.0,South,10.4,-,N/A,,Scattered Clouds,180,2012-10-11 23:51:00
7:51 PM,75.2,66.2,73,30.09,10.0,SSE,10.4,-,N/A,,Scattered Clouds,150,2012-10-12 00:51:00
8:51 PM,73.4,66.2,78,30.11,10.0,SE,9.2,-,N/A,,Clear,140,2012-10-12 01:51:00
9:51 PM,72.0,66.9,84,30.11,10.0,SE,6.9,-,N/A,,Clear,130,2012-10-12 02:51:00
10:51 PM,71.6,68.0,88,30.12,10.0,South,6.9,-,N/A,,Clear,170,2012-10-12 03:51:00
11:51 PM,72.0,69.1,91,30.10,10.0,SSE,8.1,-,N/A,,Clear,160,2012-10-12 04:51:00